Preview of NWS' New Version of Forecast
This preview is not operational and should not be used for support decisions.

Regional Weather Roundup (RWR)

Issued by National Weather Service (NWS)

                            
000
ASUS43 KBIS 220202
RWRND 

NORTH DAKOTA REGIONAL WEATHER ROUNDUP
NATIONAL WEATHER SERVICE BISMARCK ND
800 PM CST THU FEB 21 2019

NOTE: "FAIR" INDICATES FEW OR NO CLOUDS BELOW 12,000 FEET WITH NO
SIGNIFICANT WEATHER AND/OR OBSTRUCTIONS TO VISIBILITY.


NDZ001>003-009>011-017-220300-
NORTHWEST NORTH DAKOTA
  
CITY           SKY/WX    TMP DP  RH WIND       PRES   REMARKS
WILLISTON      CLEAR     -4 -10  75 NW8       30.19R WCI -19          
MINOT          CLOUDY     3  -3  76 W7        30.17R WCI  -9          
MINOT AFB      CLOUDY    -7 -12  78 W8        30.17R WCI -23          
$$
 
NDZ018>021-031>035-040>046-220300-
SOUTHWEST NORTH DAKOTA
  
CITY           SKY/WX    TMP DP  RH WIND       PRES   REMARKS
BISMARCK       PTCLDY     5   2  87 W6        30.22R WCI  -6          
DICKINSON      CLEAR      0  -5  79 W8        30.12R WCI -14          
GARRISON         N/A      2  -2  83 NW6       30.17R WCI  -9          
HETTINGER ARPT PTCLDY    -3  -6  87 CALM      30.15R                  
$$
 
NDZ004>008-012>016-024-026-027-054-220300-
NORTHEAST NORTH DAKOTA
  
CITY           SKY/WX    TMP DP  RH WIND       PRES   REMARKS
GRAND FORKS    FLURRIES  13   8  81 NE3       30.24R                  
GRND FRKS AFB  CLOUDY    14  10  85 CALM      30.23R                  
DEVILS LAKE    FLURRIES   7   4  87 W3        30.19R                  
$$
 
NDZ022-023-025-028>030-036>039-047>053-220300-
SOUTHEAST NORTH DAKOTA
  
CITY           SKY/WX    TMP DP  RH WIND       PRES   REMARKS
FARGO          CLEAR      2   2 100 S3        30.25R FOG              
JAMESTOWN      CLOUDY    10   7  87 W5        30.19R WCI   2          
$$